This demonstration page uses our WeatherBlox Daily Observations layout. Learn more.

Left ArrowRight Arrow

Hourly Observations for January 15, 2016

Temp ( °F °C ) Dew Point ( °F °C ) Humidity (%) Winds ( mph kmh ) Pressure ( in mb ) Visibility ( mi km ) Precip ( " mm )
12:53 am 00:53 Clear 36 2.2 31 -0.6 82 82 Calm 29.97 1015 10 16 0.00 0.00
1:53 am 01:53 Clear 36 2.2 31 -0.6 82 82 Calm 29.93 1014 10 16 0.00 0.00
2:53 am 02:53 Mostly Cloudy 36 2.2 32 0 86 86 ENE 3 6 29.89 1012 10 16 0.00 0.00
3:53 am 03:53 Cloudy 41 5 31 -0.6 67 67 ENE 3 6 29.85 1011 10 16 0.00 0.00
4:53 am 04:53 Cloudy with Light Rain 42 5.6 33 0.6 71 71 N 3 6 29.83 1010 10 16 0.00 0.03
5:40 am 05:40 Cloudy with Rain 43 6 36 2 76 76 ENE 6 9 29.83 1010 5 8 0.00 0.00
5:53 am 05:53 Cloudy with Rain 41 5 37 2.8 86 86 Calm 29.81 1010 4 6 0.10 2.54
6:28 am 06:28 Cloudy with Heavy Rain 39 4 36 2 87 87 NE 8 13 29.83 1010 3 5 0.00 0.00
6:38 am 06:38 Cloudy with Rain 39 4 36 2 87 87 NE 8 13 29.83 1010 4 6 0.00 0.00
6:53 am 06:53 Cloudy with Rain 40 4.4 37 2.8 89 89 NE 9 15 29.80 1009 3 5 0.24 6.10
7:28 am 07:28 Cloudy with Rain 39 4 37 3 93 93 NNE 6 9 29.80 1009 4 6 0.00 0.00
7:53 am 07:53 Cloudy with Rain 40 4.4 37 2.8 89 89 NNE 7 11 29.78 1008 4 6 0.21 5.33
8:53 am 08:53 Cloudy with Heavy Rain 40 4.4 38 3.3 93 93 NE 13 20 29.70 1006 3 5 0.29 7.37
9:53 am 09:53 Cloudy with Light Rain 41 5 38 3.3 89 89 NNE 14 22 29.64 1004 8 13 0.22 5.59
10:38 am 10:38 Cloudy with Heavy Rain 41 5 39 4 93 93 NW 8 13 29.68 1005 2 3 0.00 0.00
10:46 am 10:46 Cloudy with Heavy Rain 41 5 39 4 93 93 NW 8 13 29.71 1006 1 2 0.00 0.00
10:53 am 10:53 Cloudy with Heavy Rain 41 5 39 3.9 93 93 NW 9 15 29.68 1005 1 2 0.25 6.35
11:12 am 11:12 Cloudy with Heavy Rain 41 5 37 3 87 87 NNW 9 15 29.68 1005 2 2 0.00 0.00
11:46 am 11:46 Cloudy with Heavy Rain 43 6 39 4 87 87 NNW 7 11 29.68 1005 2 2 0.00 0.00
11:53 am 11:53 Cloudy with Rain 42 5.6 40 4.4 92 92 NNE 5 7 29.64 1004 2 2 0.38 9.65
12:00 pm 12:00 Cloudy with Heavy Rain 43 6 39 4 87 87 ENE 8 13 29.65 1004 3 4 0.00 0.00
12:34 pm 12:34 Cloudy with Light Rain 44 6.7 41 5 89 89 NE 8 13 29.62 1003 6 10 0.11 2.79
12:53 pm 12:53 Cloudy with Rain 45 7.2 42 5.6 90 90 NE 5 7 29.57 1002 3 5 0.16 4.06
1:53 pm 13:53 Mostly Sunny 48 8.9 45 7.2 89 89 WSW 3 6 29.57 1001 10 16 0.03 0.76
2:13 pm 14:13 Partly Cloudy 51 10.6 47 8.3 86 86 WSW 6 9 29.56 1001 10 16 0.00 0.00
2:25 pm 14:25 Mostly Cloudy 50 10 46 7.8 86 86 SW 6 9 29.56 1001 10 16 0.00 0.00
2:53 pm 14:53 Cloudy 50 10 46 7.8 86 86 W 8 13 29.57 1001 10 16 0.00 0.00
3:53 pm 15:53 Cloudy 50 10 46 7.8 86 86 W 9 15 29.61 1003 10 16 0.00 0.00
4:53 pm 16:53 Cloudy 51 10.6 46 7.8 83 83 SW 6 9 29.62 1003 10 16 0.00 0.00
5:01 pm 17:01 Cloudy 51 10.6 46 7.8 83 83 SW 6 9 29.62 1003 10 16 0.00 0.00
5:53 pm 17:53 Cloudy 50 10 46 7.8 86 86 SW 6 9 29.64 1004 10 16 0.00 0.00
6:53 pm 18:53 Cloudy 50 10 47 8.3 89 89 SW 3 6 29.66 1004 10 16 0.00 0.00
7:26 pm 19:26 Cloudy 50 10 46 8 88 88 SW 5 7 29.68 1005 10 16 0.00 0.00
7:49 pm 19:49 Cloudy 50 10 46 8 88 88 SSW 5 7 29.68 1005 9 14 0.00 0.00
7:53 pm 19:53 Cloudy 50 10 48 8.9 93 93 SSW 5 7 29.67 1005 9 14 0.00 0.00
8:07 pm 20:07 Cloudy 50 10 48 9 94 94 SW 5 7 29.68 1005 10 16 0.00 0.00
8:53 pm 20:53 Cloudy 50 10 48 8.9 93 93 SSW 6 9 29.70 1006 10 16 0.00 0.00
9:00 pm 21:00 Cloudy 50 10 48 9 94 94 SSW 5 7 29.71 1006 10 16 0.00 0.00
9:53 pm 21:53 Cloudy with Mist and Fog 51 10.6 48 8.9 89 89 WSW 5 7 29.72 1006 4 6 0.00 0.00
10:53 pm 22:53 Cloudy 51 10.6 48 8.9 89 89 SW 5 7 29.72 1007 10 16 0.00 0.03
11:53 pm 23:53 Mostly Cloudy 50 10 47 8.3 89 89 SSW 5 7 29.72 1006 10 16 0.00 0.00

Powered by AerisWeather